Home   Weather   Nancy   Past weeks

Flag for France Past Weather in Nancy, Lorraine, France — Yesterday and Last 2 Weeks

39 °F

Passing clouds.

Feels Like: 34 °F
Forecast: 35 / 53 °F
Wind: 8 mph from Southwest

Location: Nancy / Ochey

Current Time: Oct 22, 2016 at 1:56:05 AM

Latest Report: Oct 22, 2016 at 1:00 AM

Visibility: 4 mi

Pressure: 30.01 "Hg

Humidity: 93%

Dew Point: 37 °F

Location of NancyLocation

Past Weather in Nancy — Graph


Nancy Temperature Yesterday

Maximum temperature yesterday: 48 °F (at 12:00 AM)
Minimum temperature yesterday: 39 °F (at 7:00 AM)
Average temperature yesterday: 45 °F

High & Low Weather Summary for the Past Weeks

High66 °F (Oct 16, 2:30 PM)100% (Oct 7, 9:00 AM)30.27 "Hg (Oct 7, 9:00 AM)
Low32 °F (Oct 10, 7:30 AM)47% (Oct 11, 4:30 PM)29.62 "Hg (Oct 14, 4:00 PM)
Average48 °F87%30.05 "Hg
* Reported Oct 7 12:00 AM — Oct 22 12:30 AM, Nancy, Weather by CustomWeather, © 2016

Note: Actual official high and low records may vary slightly from our data, if they occured in-between our weather recording intervals... More about our weather records


Nancy Weather History for the Previous 24 Hours

Scroll right to see more
Time TempWeatherWind HumidityBarometerVisibility
12:30 AM
Sat, Oct 22
39 °FClear.6 mph93%30.01 "Hg4 mi
12:00 AM39 °FClear.3 mph93%30.01 "Hg4 mi
11:30 PM
Fri, Oct 21
39 °FClear.1 mph93%30.01 "Hg4 mi
11:00 PM39 °FClear.3 mph100%30.01 "Hg5 mi
10:30 PM39 °FClear.6 mph100%30.01 "Hg4 mi
10:00 PM41 °FPassing clouds.3 mph93%30.01 "Hg4 mi
9:30 PM43 °FPassing clouds.2 mph93%30.01 "Hg6 mi
9:00 PM45 °FPassing clouds.3 mph93%30.01 "HgN/A
8:30 PM45 °FPassing clouds.5 mph87%30.01 "HgN/A
8:00 PM46 °FPartly cloudy.7 mph87%30.01 "HgN/A
7:30 PM45 °FPassing clouds.3 mph87%30.01 "HgN/A
7:00 PM46 °FMostly cloudy.5 mph87%30.01 "HgN/A
6:30 PM46 °FMostly cloudy.6 mph87%30.01 "HgN/A
6:00 PM46 °FCloudy.6 mph87%30.01 "HgN/A
5:30 PM48 °FMostly cloudy.3 mph71%30.01 "HgN/A
5:00 PM48 °FOvercast.5 mph76%30.01 "HgN/A
4:30 PM48 °FOvercast.5 mph76%30.01 "HgN/A
4:00 PM48 °FMore clouds than sun.5 mph76%30.01 "HgN/A
3:30 PM48 °FMostly cloudy.7 mph76%30.01 "HgN/A
3:00 PM48 °FMostly cloudy.7 mph76%30.01 "HgN/A
2:30 PM48 °FOvercast.7 mph76%30.01 "HgN/A
2:00 PM48 °FMore clouds than sun.7 mph76%30.01 "HgN/A
1:30 PM48 °FOvercast.6 mph76%30.01 "HgN/A
1:00 PM48 °FOvercast.5 mph76%30.01 "HgN/A
12:30 PM48 °FMostly cloudy.3 mph76%30.01 "HgN/A
12:00 PM48 °FPartly sunny.5 mph76%30.01 "HgN/A
11:30 AM46 °FPassing clouds.3 mph82%30.01 "HgN/A
11:00 AM45 °FPassing clouds.3 mph87%30.01 "HgN/A
10:30 AM43 °FPartly sunny.2 mph93%30.01 "Hg4 mi
10:00 AM43 °FLow clouds.5 mph93%30.01 "Hg4 mi
9:30 AM41 °FFog.3 mph100%30.01 "Hg3 mi
9:00 AM41 °FFog.2 mph100%30.01 "Hg3 mi
8:30 AM41 °FFog.2 mph100%29.98 "Hg3 mi
8:00 AM41 °FFog.1 mph100%29.98 "Hg3 mi
7:30 AM41 °FMostly cloudy.1 mph100%29.98 "Hg4 mi
7:00 AM39 °FPartly cloudy.5 mph100%29.98 "Hg4 mi
6:30 AM41 °FPassing clouds.6 mph100%29.98 "Hg5 mi
6:00 AM43 °FLow clouds.9 mph93%29.95 "HgN/A
5:30 AM45 °FPassing clouds.9 mph87%29.95 "HgN/A
5:00 AM45 °FPassing clouds.8 mph93%29.95 "HgN/A
4:30 AM46 °FPartly cloudy.8 mph87%29.95 "HgN/A
4:00 AM46 °FMostly cloudy.6 mph93%29.95 "HgN/A
3:30 AM46 °FPassing clouds.6 mph93%29.95 "HgN/A
3:00 AM46 °FMostly cloudy.6 mph93%29.95 "HgN/A
2:30 AM48 °FLow clouds.7 mph94%29.95 "HgN/A
2:00 AM48 °FMostly cloudy.7 mph94%29.95 "HgN/A
1:30 AM48 °FMostly cloudy.8 mph94%29.95 "HgN/A
1:00 AM48 °FMostly cloudy.8 mph94%29.95 "HgN/A
Weather by CustomWeather, © 2016

See weather overviewHow to use our weather pages